Probability
0 0 0 0 0 0 0 0 0 0 0 0 0 1 3 5 3 1 0 0 0 0 0 0 0 0 0 0 0 0 0 0 0 0 0 0 0 0 0 0 0 0 0 0
0 0 0 0 0 0 0 0 0 0 0 0 0 1 3 4 3 1 0 0 0 0 0 0 0 0 0 0 0 0 0 0 0 0 0 0 0 0 0 0 0 0 0 0
0 0 0 0 0 0 0 0 0 0 0 0 0 1 2 3 2 1 0 0 0 0 0 0 0 0 0 0 0 0 0 0 0 0 0 0 0 0 0 0 0 0 0 0
0 0 0 0 0 0 0 0 0 0 0 0 0 0 1 2 1 0 0 0 0 0 0 0 0 0 0 0 0 0 0 0 0 0 0 0 0 0 0 0 0 0 0 0
0 0 0 0 0 0 0 0 0 0 1 1 0 0 0 0 0 0 0 0 0 0 0 0 0 0 0 0 0 0 0 0 0 0 0 0 0 0 0 0 0 0 0 0
0 0 0 0 0 0 0 0 0 0 1 1 1 0 0 0 0 0 0 0 0 0 0 0 0 0 0 0 0 0 0 0 0 0 0 0 0 0 0 0 0 0 0 0
0 0 0 0 0 0 0 0 0 0 1 1 1 1 1 0 0 0 0 0 0 0 0 0 0 0 0 0 0 0 0 0 0 0 0 0 0 0 0 0 0 0 0 0
0 0 0 0 0 0 0 0 0 0 0 0 1 1 1 0 0 0 0 0 0 0 0 0 0 0 0 0 0 0 0 0 0 0 0 0 0 0 0 0 0 0 0 0
0 0 0 0 0 0 0 0 0 0 0 0 0 0 0 0 0 0 0 0 0 0 0 0 0 0 0 0 0 0 0 0 0 0 0 0 0 0 0 0 0 0 0 0
0 0 0 0 0 0 0 0 0 0 0 0 0 0 0 0 0 0 0 0 0 0 0 0 0 0 0 0 0 0 0 0 0 0 0 0 0 0 0 0 0 0 0 0
0 0 0 0 0 0 0 0 0 0 0 0 0 0 0 0 0 0 0 0 0 0 0 0 0 0 0 0 0 0 0 0 0 0 0 0 0 0 0 0 0 0 0 0
0 0 0 0 0 0 0 0 0 0 0 0 0 0 0 0 0 0 0 0 0 0 0 0 0 0 0 0 0 0 0 0 0 0 0 0 0 0 0 0 0 0 0 0
0 0 0 0 0 0 0 0 0 0 0 0 0 0 0 0 0 0 0 0 0 0 0 0 0 0 0 0 0 0 0 0 0 0 0 0 0 0 0 0 0 0 0 0
0 0 0 0 0 0 0 0 0 0 0 0 0 0 0 0 0 0 0 0 0 0 0 0 0 0 0 0 0 0 0 0 0 0 0 0 0 0 0 0 0 0 0 0
0 0 0 0 0 0 0 0 0 0 0 0 0 0 0 0 0 0 0 0 0 0 0 0 0 0 0 0 0 0 0 0 0 0 0 0 0 0 0 0 0 0 0 0
0 0 0 0 0 0 0 0 0 0 0 0 0 0 0 0 0 0 0 0 0 0 0 0 0 0 0 0 0 0 0 0 0 0 0 0 0 0 0 0 0 0 0 0
0 0 0 0 0 0 0 0 0 0 0 0 0 0 0 0 0 0 0 0 0 0 0 0 0 0 0 0 0 0 0 0 0 0 0 0 0 0 0 0 0 0 0 0
0 0 0 0 0 0 0 0 0 0 0 0 0 0 0 0 0 0 0 0 0 0 0 0 0 0 0 0 0 0 0 0 0 0 0 0 0 0 0 0 0 0 0 0
0 0 0 0 0 0 0 0 0 0 0 0 0 0 0 0 0 0 0 0 0 0 0 0 0 0 0 0 0 0 0 0 0 0 0 0 0 0 0 0 0 0 0 0
0 0 0 0 0 0 0 0 0 0 0 0 0 0 0 0 0 0 0 0 0 0 0 0 0 0 0 0 0 0 0 0 0 0 0 0 0 0 0 0 0 0 0 0
0 0 0 0 0 0 0 0 0 0 0 0 0 0 0 0 0 0 0 0 0 0 0 0 0 0 0 0 0 0 0 0 0 0 0 0 0 0 0 0 0 0 0 0
0 0 0 0 0 0 0 0 0 0 0 0 0 0 0 0 0 0 0 0 0 0 0 0 0 0 0 0 0 0 0 0 0 0 0 0 0 0 0 0 0 0 0 0
0 0 0 0 0 0 0 0 0 0 0 0 0 0 0 0 0 0 0 0 0 0 0 0 0 0 0 0 0 0 0 0 0 0 0 0 0 0 0 0 0 0 0 0
0 0 0 0 0 0 0 0 0 0 0 0 0 0 0 0 0 0 0 0 0 0 0 0 0 0 0 0 0 0 0 0 0 0 0 0 0 0 0 0 0 0 0 0
0 0 0 0 0 0 0 0 0 0 0 0 0 0 0 0 0 0 0 0 0 0 0 0 0 0 0 0 0 0 0 0 0 0 0 0 0 0 0 0 0 0 0 0
0 0 0 0 0 0 0 0 0 0 0 0 0 0 0 0 0 0 0 0 0 0 0 0 0 0 0 0 0 0 0 0 0 0 0 0 0 0 0 0 0 0 0 0
0 0 0 0 0 0 0 0 0 0 0 0 0 0 0 0 0 0 0 0 0 0 0 0 0 0 0 0 0 0 0 0 0 0 0 0 0 0 0 0 0 0 0 0
Wind_Speed
5 3 4 6 6 7 8 9 9 8 7 2 4 8 12 14 14 13 12 10 9 8 7 7 6 6 6 7 7 7 8 8 8 8 8 9 9 9 9 9 10 9 9 10
6 5 5 7 7 7 7 8 8 8 3 4 6 8 12 14 14 13 12 11 10 9 8 7 7 7 7 7 7 7 8 8 8 8 8 8 8 8 9 9 9 9 10 10
5 4 7 6 3 4 4 3 5 6 2 6 8 9 12 13 13 13 13 12 11 10 9 8 7 7 7 7 7 7 8 8 8 8 8 8 8 9 8 8 9 9 10 11
5 5 6 3 3 4 4 2 3 3 4 6 7 7 8 10 12 13 13 12 11 9 9 8 7 7 7 7 7 8 8 8 8 8 8 8 8 9 8 7 7 8 9 10
5 5 3 3 4 4 4 1 4 3 7 9 11 10 7 7 10 12 13 12 11 10 10 9 8 7 8 8 7 8 8 7 7 7 8 8 9 8 7 7 8 8 9 9
5 5 1 4 6 5 5 2 4 3 7 10 10 6 7 9 11 12 12 11 10 10 10 9 8 7 8 8 8 8 8 7 7 7 8 9 9 8 7 7 8 8 9 9
6 5 1 7 7 6 4 4 3 3 6 8 4 5 13 14 13 14 13 12 12 11 9 9 8 8 8 8 8 8 7 7 7 7 8 8 8 7 6 7 8 8 8 8
4 3 2 9 6 5 6 4 2 3 6 7 10 14 15 15 14 15 14 13 12 10 9 8 8 8 9 8 8 8 7 7 7 7 7 7 7 6 6 6 7 7 7 7
3 3 5 5 5 4 3 2 3 5 8 11 13 14 15 14 14 14 14 13 11 11 10 9 8 8 9 9 8 8 7 8 8 8 6 6 6 6 5 4 4 5 5 6
2 2 4 5 5 5 3 3 5 7 10 12 14 15 15 14 13 13 12 12 10 11 11 10 9 8 8 8 7 7 8 8 7 7 6 6 4 5 4 4 4 4 5 5
3 1 2 5 6 6 4 5 8 9 10 12 15 15 15 13 13 13 12 11 10 10 10 11 10 10 10 9 8 8 8 7 6 7 7 6 6 6 5 7 7 5 4 4
3 3 3 3 4 3 4 6 9 11 12 12 13 15 15 13 12 12 12 11 11 11 11 11 11 10 9 9 8 8 7 6 6 6 6 6 7 7 10 8 7 8 9 8
4 4 3 1 2 3 5 7 9 11 13 13 13 13 14 13 13 12 12 12 12 11 11 11 10 10 9 8 7 7 7 6 5 6 6 5 5 6 7 6 5 5 4 5
2 2 2 2 3 4 7 9 11 12 12 13 13 13 13 14 14 13 13 12 12 11 11 11 10 10 9 8 8 8 7 6 5 5 5 5 4 4 4 5 6 6 5 3
4 4 3 4 6 7 9 11 12 12 13 13 13 14 14 15 14 13 12 12 12 11 11 10 10 10 9 9 8 8 6 5 4 5 5 4 4 4 4 4 4 5 5 6
2 3 5 7 9 10 11 12 12 13 13 14 13 14 14 14 14 13 12 12 12 12 11 10 10 10 9 9 8 7 6 4 2 4 5 4 4 3 4 4 4 4 3 3
5 6 8 9 11 11 11 11 12 13 14 14 14 15 15 14 14 13 12 11 10 10 10 10 10 10 10 9 8 6 7 7 5 4 4 4 3 3 3 3 3 3 3 5
5 7 8 9 10 11 11 11 12 13 13 14 15 15 14 14 14 13 12 12 11 11 10 10 10 10 10 9 6 5 6 6 6 4 5 4 3 3 3 3 3 2 3 6
4 6 8 9 10 10 11 12 13 13 14 14 15 15 14 13 13 13 13 13 12 12 11 10 9 9 9 8 5 5 5 5 5 4 4 4 4 3 2 2 2 1 1 2
4 6 8 10 11 11 12 12 13 13 13 14 14 14 14 13 13 13 13 11 9 9 11 11 12 10 9 9 6 6 6 6 5 5 5 5 4 4 3 2 2 1 1 1
5 7 9 11 11 11 12 13 13 14 14 15 14 14 13 13 13 13 12 10 10 11 12 11 10 9 9 8 8 7 7 6 5 5 5 4 4 4 3 3 2 2 2 2
5 7 8 9 11 11 11 12 13 14 14 14 14 14 14 13 13 12 11 8 11 11 10 11 10 8 8 8 9 8 7 7 6 5 5 5 4 4 4 4 4 3 3 3
4 6 7 9 10 11 12 12 13 14 14 14 14 14 14 12 11 11 10 9 11 12 11 10 10 13 10 9 8 7 7 7 6 6 5 5 5 5 5 5 4 4 4 4
4 5 6 7 9 11 12 12 12 11 13 13 13 13 12 11 10 9 8 11 11 13 10 9 15 14 11 10 8 8 7 7 7 7 6 6 6 6 5 5 5 5 5 6
4 5 6 8 8 9 11 12 12 12 13 11 13 14 12 10 9 9 9 13 14 13 11 12 15 14 12 11 9 9 8 7 7 6 6 6 6 6 6 6 6 6 6 6
3 4 5 6 6 6 8 9 10 10 11 11 11 11 10 9 10 10 9 12 16 13 11 11 13 13 13 12 11 10 9 8 8 9 9 7 8 8 7 6 8 7 7 7
4 4 4 5 6 7 7 8 9 10 10 11 11 11 11 11 10 11 12 11 13 13 12 11 12 13 13 12 11 11 10 9 9 9 9 9 8 8 8 9 8 7 8 8
Wind_Direction
273 282 266 265 264 259 258 273 283 300 313 7 161 167 158 151 148 147 147 146 143 134 127 120 113 105 100 97 92 93 92 89 85 82 80 79 74 73 75 72 72 70 71 69
246 238 251 263 266 267 269 276 278 283 306 69 111 137 149 153 155 155 154 150 143 138 135 129 123 117 112 107 104 101 95 94 92 90 86 83 80 80 80 77 75 74 73 72
252 252 257 247 277 284 276 292 299 305 39 117 133 149 158 159 159 158 154 151 147 145 140 132 127 124 119 116 112 106 99 94 92 93 91 89 88 83 81 81 81 80 79 78
266 256 243 82 40 333 304 340 353 26 91 117 124 129 142 155 157 155 152 149 148 146 138 132 130 127 122 118 115 111 104 99 97 97 95 93 89 85 82 79 79 79 79 79
260 249 233 124 41 349 310 29 39 78 113 114 119 116 119 143 150 150 148 146 144 142 140 138 135 133 128 124 118 111 104 98 97 99 99 97 93 91 88 86 81 80 80 80
251 264 254 64 18 336 279 159 66 109 139 147 165 165 142 145 139 134 131 135 137 138 140 138 137 137 131 125 120 114 109 105 101 101 100 100 98 95 91 89 88 87 81 78
246 250 85 32 352 304 284 36 45 126 153 166 174 77 125 137 133 132 133 137 139 139 139 138 141 138 129 123 117 116 116 111 105 103 102 103 104 101 101 97 93 91 90 86
245 247 78 22 1 10 13 9 74 126 137 127 105 111 125 131 133 135 137 141 143 139 135 138 144 140 130 123 121 121 119 114 111 110 110 110 111 108 106 109 112 108 101 96
335 26 52 32 16 9 349 26 100 125 127 129 127 129 131 132 135 137 140 142 143 140 137 138 143 140 131 126 127 125 120 114 112 110 109 115 121 121 121 124 113 113 111 103
295 59 50 53 40 30 34 75 104 123 133 137 135 136 135 136 138 139 142 145 146 146 141 139 139 133 127 128 127 123 119 116 116 115 115 111 114 116 115 107 103 105 103 102
274 358 62 70 39 35 61 98 112 123 133 137 138 140 140 140 142 143 146 148 147 144 139 137 138 137 139 140 139 129 122 120 119 113 105 104 83 53 54 62 38 35 66 80
332 25 359 30 37 50 99 121 128 131 130 135 140 140 140 140 142 144 147 149 148 145 141 139 142 142 142 144 144 139 135 135 130 124 120 121 119 107 57 56 63 52 35 27
308 340 352 33 67 96 119 125 129 132 133 135 138 140 139 139 142 145 147 149 148 146 143 143 144 143 143 145 143 138 132 131 130 127 128 129 128 128 126 109 87 80 65 47
265 270 236 164 132 128 129 128 127 128 131 134 138 141 141 141 143 147 148 148 147 145 145 146 146 141 141 145 142 137 134 130 136 130 129 128 130 133 134 138 142 140 143 141
255 246 219 159 145 140 139 137 135 135 136 138 141 144 145 146 147 147 147 147 148 147 148 149 147 143 147 146 142 143 140 132 129 128 134 130 136 137 130 128 126 129 141 152
260 197 168 160 155 152 153 153 148 145 146 145 147 149 150 149 147 147 150 153 155 153 153 152 149 149 152 148 148 145 123 96 145 153 144 143 144 137 131 135 133 134 142 133
215 191 175 167 162 162 163 160 154 151 151 151 151 150 150 150 150 153 156 158 155 152 154 155 154 154 155 157 166 158 146 143 185 190 148 140 138 133 133 134 130 137 122 83
219 201 186 174 166 163 160 157 154 154 154 153 151 153 155 157 159 158 159 158 157 158 160 160 158 161 160 163 173 166 159 162 173 157 146 147 143 146 140 135 140 148 139 141
189 183 179 174 169 163 159 158 156 154 153 155 157 158 160 162 161 160 161 162 164 164 163 157 153 172 165 160 177 180 173 168 164 163 159 149 199 182 165 166 167 168 142 138
153 164 166 166 167 164 159 157 155 153 156 160 161 161 163 164 163 163 166 171 174 164 158 158 170 176 170 169 211 193 177 177 172 170 176 188 194 191 196 198 194 200 217 202
142 151 159 162 162 163 160 159 159 159 162 166 166 166 165 165 168 170 175 173 167 162 159 161 182 178 179 167 206 206 181 184 187 187 192 199 205 208 210 216 222 229 231 235
147 151 154 154 158 160 162 164 165 164 165 169 170 168 167 169 174 178 185 177 162 160 173 178 189 174 162 176 199 202 191 187 197 199 204 211 214 219 222 228 234 237 241 248
148 152 154 158 161 161 164 169 170 168 170 174 174 173 175 176 178 182 180 176 168 172 195 185 158 143 161 208 211 204 198 197 206 208 212 218 220 223 229 233 236 241 248 253
149 155 159 159 160 164 170 173 172 172 174 177 177 179 179 180 184 191 178 166 164 169 198 153 143 158 191 218 214 210 205 205 212 218 221 223 225 226 226 231 239 243 246 251
159 161 161 165 170 173 171 171 172 176 179 180 179 181 186 189 187 184 176 168 164 179 191 158 162 176 204 219 215 214 214 213 217 227 225 230 234 233 231 234 239 246 250 253
170 178 170 183 183 178 174 176 178 179 183 181 180 182 186 186 187 180 179 180 177 193 202 177 179 192 214 219 218 218 220 208 207 224 234 235 237 239 240 242 246 250 254 256
183 175 179 189 187 188 185 186 187 186 187 186 182 182 185 186 186 185 187 186 181 191 204 198 191 196 209 216 218 217 220 222 223 225 228 231 236 238 239 241 246 249 253 254